When you browse on this site, cookies collect data to enhance your experience and personalize the content and advertising you see.
Visit our Privacy Policy to learn more. By continuing to use the site, you agree to this use of cookies and data.
  • In Österreich
  • Länderverzeichnis
  • Für 7 Tage
  • Wassertemperatur
  • Wetterkarte
  • News
  • Widgets
  • user-avatar
    Anmelden

    Stündliche Wetter Zorya

    Heute, 20 August, Dienstag

    Zeit Temperatur Niederschläge Wind Luftdruck Luftfeuchtigkeit
    00:00 +22°C° 0 mm 4 m/S 754 mmHg 68%
    01:00 +22°C° 0 mm 4 m/S 754 mmHg 69%
    02:00 +22°C° 0 mm 4 m/S 754 mmHg 70%
    03:00 +22°C° 0 mm 4 m/S 753 mmHg 71%
    04:00 +21°C° 0 mm 3 m/S 754 mmHg 73%
    05:00 +21°C° 0 mm 3 m/S 754 mmHg 75%
    06:00 +21°C° 0 mm 3 m/S 754 mmHg 77%
    07:00 +23°C° 0 mm 4 m/S 754 mmHg 71%
    08:00 +26°C° 0 mm 4 m/S 754 mmHg 65%
    09:00 +28°C° 0 mm 4 m/S 755 mmHg 57%
    10:00 +29°C° 0 mm 4 m/S 754 mmHg 52%
    11:00 +31°C° 0 mm 3 m/S 754 mmHg 48%
    12:00 +33°C° 0 mm 3 m/S 754 mmHg 44%
    13:00 +34°C° 0 mm 3 m/S 754 mmHg 42%
    14:00 +34°C° 0 mm 3 m/S 754 mmHg 40%
    15:00 +35°C° 0 mm 3 m/S 754 mmHg 38%
    16:00 +35°C° 0 mm 4 m/S 754 mmHg 39%
    17:00 +34°C° 0 mm 4 m/S 754 mmHg 41%
    18:00 +34°C° 0 mm 5 m/S 753 mmHg 42%
    19:00 +32°C° 0 mm 5 m/S 753 mmHg 46%
    20:00 +29°C° 0 mm 5 m/S 754 mmHg 51%
    21:00 +28°C° 0 mm 4 m/S 754 mmHg 55%
    22:00 +27°C° 0 mm 5 m/S 754 mmHg 58%
    23:00 +27°C° 0 mm 5 m/S 754 mmHg 60%

    Morgen, 21 August, Mittwoch

    Zeit Temperatur Niederschläge Wind Luftdruck Luftfeuchtigkeit
    00:00 +26°C° 0 mm 6 m/S 754 mmHg 63%
    01:00 +26°C° 0 mm 6 m/S 753 mmHg 63%
    02:00 +24°C° 0 mm 6 m/S 753 mmHg 64%
    03:00 +24°C° 0 mm 6 m/S 753 mmHg 64%
    04:00 +23°C° 0 mm 6 m/S 753 mmHg 64%
    05:00 +23°C° 0 mm 6 m/S 753 mmHg 64%
    06:00 +23°C° 0 mm 7 m/S 753 mmHg 64%
    07:00 +24°C° 0 mm 7 m/S 753 mmHg 60%
    08:00 +26°C° 0 mm 7 m/S 753 mmHg 56%
    09:00 +28°C° 0 mm 7 m/S 753 mmHg 52%
    10:00 +29°C° 0 mm 7 m/S 753 mmHg 49%
    11:00 +32°C° 0 mm 7 m/S 753 mmHg 45%
    12:00 +34°C° 0 mm 7 m/S 753 mmHg 41%
    13:00 +35°C° 0 mm 6 m/S 752 mmHg 39%
    14:00 +35°C° 0 mm 6 m/S 752 mmHg 38%
    15:00 +36°C° 0 mm 6 m/S 752 mmHg 36%
    16:00 +35°C° 0 mm 6 m/S 751 mmHg 38%
    17:00 +35°C° 0 mm 6 m/S 751 mmHg 39%
    18:00 +34°C° 0 mm 6 m/S 751 mmHg 41%
    19:00 +33°C° 0 mm 6 m/S 751 mmHg 44%
    20:00 +30°C° 0 mm 7 m/S 751 mmHg 46%
    21:00 +29°C° 0 mm 7 m/S 751 mmHg 49%
    22:00 +28°C° 0 mm 7 m/S 751 mmHg 50%
    23:00 +28°C° 0 mm 6 m/S 751 mmHg 52%

    übermorgen, 22 August, Donnerstag

    Zeit Temperatur Niederschläge Wind Luftdruck Luftfeuchtigkeit
    00:00 +27°C° 0 mm 6 m/S 751 mmHg 53%
    01:00 +27°C° 0 mm 6 m/S 751 mmHg 57%
    02:00 +26°C° 0 mm 6 m/S 751 mmHg 61%
    03:00 +24°C° 0 mm 6 m/S 751 mmHg 64%
    04:00 +25°C° 0 mm 5 m/S 751 mmHg 67%
    05:00 +23°C° 0 mm 5 m/S 750 mmHg 69%
    06:00 +23°C° 0 mm 5 m/S 750 mmHg 72%
    07:00 +26°C° 0 mm 5 m/S 750 mmHg 66%
    08:00 +27°C° 0 mm 6 m/S 751 mmHg 61%
    09:00 +29°C° 0 mm 6 m/S 751 mmHg 55%
    10:00 +32°C° 0 mm 6 m/S 751 mmHg 49%
    11:00 +33°C° 0 mm 6 m/S 751 mmHg 43%
    12:00 +35°C° 0 mm 6 m/S 751 mmHg 36%
    13:00 +36°C° 0 mm 5 m/S 751 mmHg 34%
    14:00 +36°C° 0 mm 5 m/S 750 mmHg 33%
    15:00 +37°C° 0 mm 5 m/S 750 mmHg 31%
    16:00 +36°C° 0 mm 5 m/S 750 mmHg 33%
    17:00 +35°C° 0 mm 5 m/S 750 mmHg 36%
    18:00 +35°C° 0 mm 5 m/S 750 mmHg 38%
    19:00 +33°C° 0 mm 5 m/S 750 mmHg 40%
    20:00 +32°C° 0 mm 5 m/S 751 mmHg 42%
    21:00 +30°C° 0 mm 6 m/S 751 mmHg 45%
    22:00 +30°C° 0 mm 6 m/S 751 mmHg 47%
    23:00 +29°C° 0 mm 6 m/S 751 mmHg 49%

    23 August, Freitag

    Zeit Temperatur Niederschläge Wind Luftdruck Luftfeuchtigkeit
    00:00 +28°C° 0 mm 6 m/S 751 mmHg 51%
    01:00 +28°C° 0 mm 6 m/S 751 mmHg 52%
    02:00 +27°C° 0 mm 6 m/S 751 mmHg 53%
    03:00 +27°C° 0 mm 5 m/S 751 mmHg 54%
    04:00 +26°C° 0 mm 5 m/S 751 mmHg 56%
    05:00 +26°C° 0 mm 5 m/S 751 mmHg 57%
    06:00 +25°C° 0 mm 5 m/S 751 mmHg 59%
    07:00 +27°C° 0 mm 5 m/S 751 mmHg 55%
    08:00 +28°C° 0 mm 5 m/S 751 mmHg 51%
    09:00 +30°C° 0 mm 5 m/S 751 mmHg 48%
    10:00 +32°C° 0 mm 5 m/S 751 mmHg 42%
    11:00 +34°C° 0 mm 5 m/S 751 mmHg 37%
    12:00 +36°C° 0 mm 5 m/S 751 mmHg 32%
    13:00 +37°C° 0 mm 5 m/S 751 mmHg 30%
    14:00 +37°C° 0 mm 5 m/S 751 mmHg 28%
    15:00 +38°C° 0 mm 4 m/S 751 mmHg 26%
    16:00 +37°C° 0 mm 5 m/S 751 mmHg 28%
    17:00 +37°C° 0 mm 5 m/S 751 mmHg 30%
    18:00 +36°C° 0 mm 5 m/S 751 mmHg 32%
    19:00 +34°C° 0 mm 5 m/S 751 mmHg 36%
    20:00 +33°C° 0 mm 5 m/S 751 mmHg 41%
    21:00 +30°C° 0 mm 6 m/S 751 mmHg 45%
    22:00 +29°C° 0 mm 6 m/S 751 mmHg 47%
    23:00 +29°C° 0 mm 6 m/S 751 mmHg 49%

    24 August, Samstag

    Zeit Temperatur Niederschläge Wind Luftdruck Luftfeuchtigkeit
    00:00 +28°C° 0 mm 6 m/S 751 mmHg 51%
    01:00 +28°C° 0 mm 7 m/S 751 mmHg 52%
    02:00 +27°C° 0 mm 7 m/S 752 mmHg 53%
    03:00 +27°C° 0 mm 7 m/S 752 mmHg 54%
    04:00 +26°C° 0 mm 7 m/S 752 mmHg 55%
    05:00 +26°C° 0 mm 7 m/S 752 mmHg 56%
    06:00 +26°C° 0 mm 7 m/S 752 mmHg 57%
    07:00 +27°C° 0 mm 7 m/S 752 mmHg 55%
    08:00 +28°C° 0 mm 7 m/S 752 mmHg 52%
    09:00 +29°C° 0 mm 7 m/S 753 mmHg 49%
    10:00 +30°C° 0 mm 7 m/S 753 mmHg 47%
    11:00 +33°C° 0 mm 7 m/S 752 mmHg 44%
    12:00 +34°C° 0 mm 7 m/S 752 mmHg 41%
    13:00 +34°C° 0 mm 7 m/S 752 mmHg 40%
    14:00 +35°C° 0 mm 7 m/S 752 mmHg 39%
    15:00 +35°C° 0 mm 7 m/S 752 mmHg 38%
    16:00 +35°C° 0 mm 7 m/S 752 mmHg 40%
    17:00 +34°C° 0 mm 6 m/S 752 mmHg 41%
    18:00 +33°C° 0 mm 6 m/S 752 mmHg 43%
    19:00 +32°C° 0 mm 6 m/S 752 mmHg 47%
    20:00 +30°C° 0 mm 6 m/S 752 mmHg 51%
    21:00 +28°C° 0 mm 6 m/S 752 mmHg 56%
    22:00 +27°C° 0.1 mm 6 m/S 752 mmHg 58%
    23:00 +27°C° 0.1 mm 6 m/S 752 mmHg 60%

    25 August, Sonntag

    Zeit Temperatur Niederschläge Wind Luftdruck Luftfeuchtigkeit
    00:00 +26°C° 0.1 mm 6 m/S 752 mmHg 63%
    01:00 +24°C° 0.1 mm 6 m/S 752 mmHg 66%
    02:00 +23°C° 0.1 mm 5 m/S 752 mmHg 70%
    03:00 +23°C° 0.1 mm 5 m/S 752 mmHg 74%
    04:00 +22°C° 0 mm 6 m/S 752 mmHg 75%
    05:00 +22°C° 0 mm 6 m/S 752 mmHg 77%
    06:00 +21°C° 0 mm 6 m/S 752 mmHg 79%
    07:00 +23°C° 0 mm 6 m/S 752 mmHg 72%
    08:00 +26°C° 0 mm 6 m/S 752 mmHg 65%
    09:00 +27°C° 0 mm 6 m/S 752 mmHg 58%
    10:00 +29°C° 0 mm 6 m/S 752 mmHg 51%
    11:00 +32°C° 0 mm 5 m/S 752 mmHg 45%
    12:00 +34°C° 0 mm 5 m/S 752 mmHg 39%
    13:00 +34°C° 0 mm 5 m/S 752 mmHg 37%
    14:00 +35°C° 0 mm 5 m/S 752 mmHg 36%
    15:00 +35°C° 0 mm 5 m/S 752 mmHg 35%
    16:00 +35°C° 0 mm 5 m/S 752 mmHg 36%
    17:00 +34°C° 0 mm 5 m/S 752 mmHg 38%
    18:00 +33°C° 0 mm 5 m/S 752 mmHg 39%
    19:00 +32°C° 0 mm 6 m/S 752 mmHg 43%
    20:00 +29°C° 0 mm 6 m/S 752 mmHg 48%
    21:00 +27°C° 0 mm 6 m/S 753 mmHg 52%
    22:00 +27°C° 0 mm 6 m/S 753 mmHg 51%
    23:00 +26°C° 0 mm 6 m/S 753 mmHg 51%
    Mehr zeigen